• en Suisse
  • Liste des pays
  • À 7 jours
  • Température de l'eau
  • Carte satellitaire
  • Carte météo
  • Widgets météo
  • user-avatar
    Se connecter

    Météo par heure à Serhiivka

    Ce jour, 14 Novembre, Mercredi

    Heure Température Précipitation Vent Pression Humidité
    00:00 -5°C° 0 mm 3 m/s 766 mmHg 68%
    01:00 -5°C° 0 mm 3 m/s 765 mmHg 73%
    02:00 -5°C° 0 mm 3 m/s 765 mmHg 77%
    03:00 -5°C° 0 mm 3 m/s 765 mmHg 80%
    04:00 -5°C° 0 mm 3 m/s 764 mmHg 83%
    05:00 -5°C° 0 mm 3 m/s 764 mmHg 86%
    06:00 -5°C° 0 mm 3 m/s 764 mmHg 86%
    07:00 -4°C° 0 mm 3 m/s 763 mmHg 86%
    08:00 -4°C° 0 mm 3 m/s 763 mmHg 87%
    09:00 -1°C° 0 mm 3 m/s 763 mmHg 82%
    10:00 0°C° 0 mm 3 m/s 763 mmHg 78%
    11:00 +2°C° 0 mm 3 m/s 763 mmHg 73%
    12:00 +3°C° 0 mm 3 m/s 762 mmHg 72%
    13:00 +4°C° 0 mm 2 m/s 762 mmHg 70%
    14:00 +5°C° 0 mm 2 m/s 761 mmHg 69%
    15:00 +4°C° 0 mm 2 m/s 761 mmHg 71%
    16:00 +4°C° 0 mm 2 m/s 761 mmHg 74%
    17:00 +4°C° 0 mm 2 m/s 761 mmHg 76%
    18:00 +4°C° 0 mm 2 m/s 761 mmHg 77%
    19:00 +4°C° 0 mm 2 m/s 761 mmHg 78%
    20:00 +4°C° 0 mm 2 m/s 761 mmHg 79%
    21:00 +3°C° 0 mm 2 m/s 761 mmHg 80%
    22:00 +3°C° 0 mm 2 m/s 760 mmHg 81%
    23:00 +3°C° 0 mm 2 m/s 760 mmHg 82%

    Demain, 15 Novembre, Jeudi

    Heure Température Précipitation Vent Pression Humidité
    00:00 +3°C° 0 mm 2 m/s 760 mmHg 82%
    01:00 +3°C° 0 mm 2 m/s 760 mmHg 82%
    02:00 +3°C° 0 mm 2 m/s 760 mmHg 83%
    03:00 +2°C° 0 mm 3 m/s 760 mmHg 83%
    04:00 +2°C° 0 mm 3 m/s 760 mmHg 83%
    05:00 +2°C° 0 mm 3 m/s 760 mmHg 83%
    06:00 +2°C° 0 mm 3 m/s 760 mmHg 82%
    07:00 +1°C° 0 mm 4 m/s 761 mmHg 81%
    08:00 +1°C° 0 mm 4 m/s 761 mmHg 80%
    09:00 +1°C° 0 mm 4 m/s 761 mmHg 76%
    10:00 +3°C° 0 mm 4 m/s 761 mmHg 72%
    11:00 +2°C° 0 mm 5 m/s 761 mmHg 68%
    12:00 +3°C° 0 mm 5 m/s 761 mmHg 65%
    13:00 +3°C° 0 mm 5 m/s 761 mmHg 63%
    14:00 +3°C° 0 mm 5 m/s 761 mmHg 60%
    15:00 +3°C° 0 mm 5 m/s 761 mmHg 63%
    16:00 +3°C° 0 mm 4 m/s 761 mmHg 66%
    17:00 +1°C° 0 mm 4 m/s 762 mmHg 68%
    18:00 +1°C° 0 mm 4 m/s 762 mmHg 68%
    19:00 +1°C° 0 mm 5 m/s 762 mmHg 68%
    20:00 0°C° 0 mm 5 m/s 763 mmHg 68%
    21:00 0°C° 0 mm 5 m/s 763 mmHg 68%
    22:00 0°C° 0 mm 5 m/s 763 mmHg 68%
    23:00 -1°C° 0 mm 5 m/s 763 mmHg 69%

    Après-demain, 16 Novembre, Vendredi

    Heure Température Précipitation Vent Pression Humidité
    00:00 -1°C° 0 mm 5 m/s 763 mmHg 70%
    01:00 -2°C° 0 mm 5 m/s 763 mmHg 72%
    02:00 -3°C° 0 mm 6 m/s 763 mmHg 73%
    03:00 -3°C° 0 mm 6 m/s 763 mmHg 74%
    04:00 -3°C° 0 mm 6 m/s 763 mmHg 74%
    05:00 -3°C° 0 mm 6 m/s 763 mmHg 74%
    06:00 -3°C° 0 mm 6 m/s 764 mmHg 72%
    07:00 -3°C° 0 mm 7 m/s 764 mmHg 71%
    08:00 -3°C° 0 mm 7 m/s 764 mmHg 69%
    09:00 -2°C° 0 mm 7 m/s 764 mmHg 64%
    10:00 -1°C° 0 mm 7 m/s 764 mmHg 58%
    11:00 0°C° 0 mm 7 m/s 764 mmHg 53%
    12:00 +2°C° 0 mm 7 m/s 764 mmHg 51%
    13:00 +2°C° 0 mm 7 m/s 764 mmHg 49%
    14:00 +3°C° 0 mm 7 m/s 764 mmHg 47%
    15:00 +2°C° 0 mm 7 m/s 764 mmHg 48%
    16:00 +2°C° 0 mm 7 m/s 764 mmHg 49%
    17:00 +1°C° 0 mm 6 m/s 764 mmHg 50%
    18:00 0°C° 0 mm 7 m/s 764 mmHg 51%
    19:00 0°C° 0 mm 7 m/s 764 mmHg 52%
    20:00 0°C° 0 mm 7 m/s 764 mmHg 53%
    21:00 0°C° 0 mm 7 m/s 764 mmHg 53%
    22:00 -1°C° 0 mm 7 m/s 764 mmHg 53%
    23:00 -1°C° 0 mm 7 m/s 764 mmHg 54%

    17 Novembre, Samedi

    Heure Température Précipitation Vent Pression Humidité
    00:00 -1°C° 0 mm 7 m/s 764 mmHg 54%
    01:00 -2°C° 0 mm 7 m/s 764 mmHg 55%
    02:00 -2°C° 0 mm 7 m/s 764 mmHg 55%
    03:00 -3°C° 0 mm 7 m/s 764 mmHg 56%
    04:00 -3°C° 0 mm 7 m/s 764 mmHg 56%
    05:00 -4°C° 0 mm 7 m/s 764 mmHg 56%
    06:00 -4°C° 0 mm 7 m/s 764 mmHg 55%
    07:00 -4°C° 0 mm 7 m/s 764 mmHg 54%
    08:00 -4°C° 0 mm 7 m/s 765 mmHg 52%
    09:00 -3°C° 0 mm 6 m/s 764 mmHg 49%
    10:00 -2°C° 0 mm 6 m/s 764 mmHg 45%
    11:00 +1°C° 0 mm 6 m/s 764 mmHg 42%
    12:00 +1°C° 0 mm 6 m/s 764 mmHg 41%
    13:00 +2°C° 0 mm 6 m/s 764 mmHg 40%
    14:00 +2°C° 0 mm 6 m/s 763 mmHg 39%
    15:00 +2°C° 0 mm 6 m/s 764 mmHg 40%
    16:00 +1°C° 0 mm 5 m/s 764 mmHg 41%
    17:00 0°C° 0 mm 4 m/s 764 mmHg 42%
    18:00 0°C° 0 mm 4 m/s 764 mmHg 42%
    19:00 0°C° 0 mm 4 m/s 764 mmHg 41%
    20:00 -1°C° 0 mm 4 m/s 764 mmHg 40%
    21:00 -1°C° 0 mm 4 m/s 764 mmHg 41%
    22:00 -2°C° 0 mm 4 m/s 763 mmHg 43%
    23:00 -2°C° 0 mm 4 m/s 763 mmHg 44%

    18 Novembre, Dimanche

    Heure Température Précipitation Vent Pression Humidité
    00:00 -1°C° 0 mm 3 m/s 763 mmHg 46%
    01:00 -2°C° 0 mm 3 m/s 763 mmHg 47%
    02:00 -2°C° 0 mm 3 m/s 763 mmHg 49%
    03:00 -4°C° 0 mm 3 m/s 762 mmHg 50%
    04:00 -4°C° 0 mm 3 m/s 762 mmHg 50%
    05:00 -4°C° 0 mm 3 m/s 762 mmHg 51%
    06:00 -4°C° 0 mm 3 m/s 762 mmHg 50%
    07:00 -4°C° 0 mm 3 m/s 761 mmHg 50%
    08:00 -4°C° 0 mm 3 m/s 761 mmHg 49%
    09:00 -1°C° 0 mm 3 m/s 761 mmHg 44%
    10:00 0°C° 0 mm 3 m/s 760 mmHg 39%
    11:00 +2°C° 0 mm 3 m/s 760 mmHg 34%
    12:00 +3°C° 0 mm 3 m/s 759 mmHg 32%
    13:00 +3°C° 0 mm 3 m/s 759 mmHg 30%
    14:00 +4°C° 0 mm 3 m/s 758 mmHg 28%
    15:00 +3°C° 0 mm 3 m/s 758 mmHg 30%
    16:00 +2°C° 0 mm 3 m/s 757 mmHg 31%
    17:00 +2°C° 0 mm 3 m/s 757 mmHg 33%
    18:00 +1°C° 0.1 mm 3 m/s 756 mmHg 39%
    19:00 +1°C° 0.1 mm 3 m/s 756 mmHg 45%
    20:00 +1°C° 0.1 mm 3 m/s 755 mmHg 51%
    21:00 0°C° 0.3 mm 3 m/s 755 mmHg 59%
    22:00 0°C° 0.3 mm 3 m/s 755 mmHg 67%
    23:00 0°C° 0.3 mm 3 m/s 754 mmHg 76%

    19 Novembre, Lundi

    Heure Température Précipitation Vent Pression Humidité
    00:00 0°C° 0.3 mm 3 m/s 754 mmHg 80%
    01:00 0°C° 0.3 mm 3 m/s 754 mmHg 83%
    02:00 -1°C° 0.3 mm 2 m/s 754 mmHg 87%
    03:00 -1°C° 0.2 mm 2 m/s 753 mmHg 89%
    04:00 -1°C° 0.2 mm 2 m/s 753 mmHg 90%
    05:00 +1°C° 0.2 mm 1 m/s 753 mmHg 92%
    06:00 +1°C° 0.1 mm 1 m/s 753 mmHg 92%
    07:00 +1°C° 0.1 mm 1 m/s 754 mmHg 91%
    08:00 +2°C° 0.1 mm 1 m/s 754 mmHg 91%
    09:00 +2°C° 0 mm 1 m/s 754 mmHg 88%
    10:00 +2°C° 0 mm 0 m/s 754 mmHg 85%
    11:00 +2°C° 0 mm 0 m/s 754 mmHg 81%
    12:00 +3°C° 0 mm 0 m/s 754 mmHg 79%
    13:00 +4°C° 0 mm 1 m/s 754 mmHg 76%
    14:00 +4°C° 0 mm 1 m/s 754 mmHg 74%
    15:00 +4°C° 0 mm 1 m/s 754 mmHg 77%
    16:00 +3°C° 0 mm 1 m/s 755 mmHg 79%
    17:00 +2°C° 0 mm 2 m/s 755 mmHg 82%
    18:00 +2°C° 0 mm 2 m/s 755 mmHg 83%
    19:00 +2°C° 0 mm 2 m/s 755 mmHg 84%
    20:00 +2°C° 0 mm 2 m/s 755 mmHg 85%
    21:00 +1°C° 0 mm 2 m/s 755 mmHg 85%
    22:00 +1°C° 0 mm 2 m/s 755 mmHg 85%
    23:00 0°C° 0 mm 3 m/s 756 mmHg 85%
    Voir plus